Theta_e
351 356 360 360 361 361 359 359 360 361 361 360 360 358 357 356 356 357 356 356 356 356 358 358 359 361 360 361 361 362 362 363 362 362 362 362 362 361 360 360 361 352 357
353 357 361 363 361 361 361 360 360 359 358 358 358 358 357 356 356 356 356 355 355 356 357 358 358 360 359 361 361 361 361 360 360 361 361 358 358 358 359 360 360 357 354
353 356 357 362 362 361 361 360 358 358 358 357 358 358 357 356 357 356 356 355 355 356 358 358 357 356 357 359 360 359 359 361 361 360 359 357 358 360 359 359 360 360 355
354 356 355 362 359 359 360 362 360 359 358 357 357 357 357 357 356 356 356 355 356 356 357 357 356 356 356 358 358 358 360 360 360 356 357 357 354 357 359 360 359 360 357
354 356 358 363 362 360 360 360 360 359 358 359 358 357 356 356 356 355 355 356 356 356 356 356 356 354 355 356 358 359 359 359 354 351 355 360 362 356 358 359 359 358 357
353 355 360 362 360 361 360 360 360 360 359 359 359 358 358 358 358 358 357 357 357 357 355 356 356 356 355 355 356 356 356 355 353 350 353 353 358 358 358 357 356 358 357
352 356 357 364 362 360 360 360 360 360 358 358 358 358 358 359 359 359 359 358 359 358 357 357 357 357 356 355 356 357 355 356 352 350 348 348 354 355 358 358 357 356 357
351 354 356 361 361 362 361 361 361 360 358 359 359 359 359 358 358 359 359 358 359 358 357 358 356 358 358 356 356 356 357 355 354 355 347 350 352 356 357 358 358 357 357
353 355 357 359 362 362 362 361 361 360 360 360 360 360 360 360 360 358 360 359 359 358 359 358 359 358 358 358 358 357 356 355 358 358 349 348 350 356 358 357 359 358 357
352 356 358 358 357 358 359 361 361 361 360 360 362 361 361 362 360 360 358 358 359 360 360 359 359 358 359 359 357 357 357 356 357 356 352 347 347 355 359 356 358 359 357
350 354 356 355 357 359 361 360 361 360 362 361 362 361 362 358 360 359 359 358 358 357 358 359 360 358 359 358 359 359 358 358 355 355 352 351 348 352 358 358 359 358 358
347 351 355 355 355 358 358 361 363 362 362 360 361 362 360 359 361 358 358 358 359 359 360 359 359 358 358 355 355 358 355 358 358 354 354 350 352 353 355 357 355 358 357
347 350 353 354 357 354 352 354 357 360 362 360 366 364 362 359 360 360 360 358 360 357 359 360 358 361 358 357 356 354 353 356 357 356 354 353 353 354 354 355 356 358 357
346 349 351 353 357 358 357 351 352 357 360 359 361 362 360 355 353 355 356 357 357 356 354 355 352 354 356 356 356 355 355 354 353 353 353 356 357 357 355 353 354 357 358
344 347 349 353 356 357 360 353 352 352 353 355 356 356 355 354 355 355 356 357 358 363 356 355 353 352 353 353 353 355 356 357 355 354 354 356 357 357 357 355 355 356 357
345 345 348 352 355 355 355 357 354 355 354 357 357 356 359 357 357 355 355 359 357 356 355 354 352 351 349 350 351 354 354 355 354 355 355 354 354 356 355 355 354 356 355
349 347 346 349 351 353 355 357 355 356 358 356 355 358 360 358 358 358 357 346 346 349 353 353 353 351 348 357 352 354 352 355 353 355 357 349 348 353 355 355 353 353 355
350 349 348 344 345 349 351 356 355 355 356 357 357 357 357 358 355 350 349 348 347 346 348 349 351 349 353 355 349 350 353 355 355 355 356 348 348 347 352 354 354 352 355
349 349 347 346 344 347 350 352 356 358 358 358 357 356 360 360 356 352 351 352 353 347 349 348 351 348 349 353 349 353 353 353 354 353 356 357 355 353 354 353 354 355 357
348 349 347 346 348 350 349 350 352 355 357 358 358 358 360 360 360 355 355 355 355 347 345 348 348 351 350 352 353 351 352 352 353 355 355 355 357 357 354 354 356 357 354
347 347 347 347 349 350 349 349 350 350 354 355 358 361 360 358 356 354 353 353 353 347 345 346 350 352 353 353 350 348 347 349 353 354 355 354 354 354 355 355 354 354 355
345 347 348 349 351 351 350 353 353 355 355 357 359 362 364 361 361 358 357 352 351 351 353 351 351 348 352 353 349 345 345 346 350 351 354 354 354 356 355 354 353 354 353
341 345 348 352 353 353 355 353 355 357 358 357 360 360 362 361 360 360 359 356 353 350 352 351 354 353 351 355 355 349 340 340 342 349 350 353 353 352 354 355 353 354 355
340 344 347 350 352 352 355 354 357 352 351 354 361 361 362 360 359 359 359 358 357 355 355 353 355 356 354 350 354 354 353 349 341 340 349 351 351 347 350 353 353 351 353
341 341 344 351 353 355 355 358 353 354 354 356 361 358 359 356 357 355 356 356 355 353 356 359 359 357 356 353 352 351 350 345 344 339 336 340 343 347 348 350 351 350 351
341 342 344 348 353 355 354 355 356 357 356 354 357 359 355 353 355 357 358 360 361 359 358 358 357 355 355 353 352 351 348 346 344 343 338 336 334 343 347 349 349 350 350
Wind_Speed
9 11 12 15 16 16 15 14 14 14 13 13 12 13 13 12 11 9 9 9 8 7 9 9 8 10 10 12 13 14 14 13 12 12 12 12 11 11 12 13 12 14 14
14 12 12 14 16 16 16 15 14 14 13 12 11 11 12 11 10 8 8 7 6 6 8 8 8 9 10 11 12 12 12 12 9 9 11 10 10 10 11 10 10 14 13
15 14 14 13 15 15 15 15 15 13 12 12 11 11 10 10 9 7 7 5 4 5 7 7 8 7 8 9 10 11 10 10 10 8 6 5 7 8 9 11 12 12 13
15 14 15 14 15 15 13 13 13 13 12 11 9 10 9 9 8 6 6 3 3 2 5 5 5 6 7 7 8 9 8 8 7 6 4 5 7 6 9 10 10 13 12
15 13 15 14 14 14 13 13 12 12 10 10 10 9 8 8 8 6 6 5 4 2 3 3 3 3 4 6 7 7 6 8 7 4 4 3 2 9 8 9 11 9 9
15 13 15 15 14 13 12 11 10 11 9 8 8 8 8 8 9 8 8 7 6 4 2 2 3 3 3 4 4 3 4 3 4 3 2 4 3 7 8 8 8 10 9
15 13 14 12 12 12 10 10 9 8 9 7 7 6 6 6 6 7 8 8 7 6 4 5 4 4 4 4 3 3 3 4 1 1 3 5 5 1 8 7 9 9 9
14 12 12 12 11 11 10 10 8 9 8 7 7 8 7 6 4 7 8 8 9 7 5 5 3 4 5 4 3 2 3 4 4 1 1 4 3 4 6 7 9 9 9
13 11 10 11 11 11 11 10 10 9 8 8 7 7 8 8 6 6 7 7 7 6 6 5 7 5 5 5 4 4 4 4 5 3 4 4 6 6 6 7 8 9 8
11 10 9 8 8 7 9 10 10 9 8 8 9 6 8 7 5 6 4 4 5 8 7 6 6 7 6 7 8 7 7 7 6 4 4 3 6 8 8 6 9 10 9
9 10 9 9 8 8 7 8 9 9 8 6 8 7 6 5 5 5 3 4 5 5 5 6 5 5 5 6 7 8 8 3 6 5 3 5 7 8 10 7 8 10 9
13 12 10 10 9 8 6 7 7 7 7 6 6 5 4 5 4 4 4 6 6 6 6 6 6 6 8 4 4 7 5 5 5 4 4 5 9 8 8 7 6 9 10
13 11 11 10 9 9 7 6 4 4 4 5 6 6 5 4 4 4 3 4 4 4 4 5 5 5 7 6 5 6 6 6 3 5 6 9 10 10 8 8 9 13 11
13 13 13 13 10 9 6 6 5 5 5 5 5 6 4 4 5 5 3 4 4 4 5 5 4 6 7 7 9 8 9 7 5 5 7 11 11 13 13 10 11 14 13
14 14 14 12 11 9 9 6 6 6 6 6 6 7 6 6 5 5 5 5 5 4 5 5 6 7 7 9 9 10 9 9 11 7 4 12 15 13 12 17 17 15 14
13 14 14 13 13 11 9 9 6 6 7 6 6 7 8 6 5 5 6 5 5 5 5 5 5 5 7 7 10 10 10 9 5 7 7 5 12 14 15 16 18 16 16
14 13 15 13 13 12 11 9 8 7 7 7 7 8 8 8 6 6 5 1 4 5 8 6 6 5 6 6 9 8 5 10 7 8 7 3 4 12 12 16 16 10 17
13 14 13 12 13 14 12 9 8 7 7 7 7 7 9 8 5 5 7 6 4 4 3 7 5 5 5 6 6 7 8 8 9 7 7 4 4 5 13 20 21 22 25
15 13 14 14 14 13 12 9 9 9 7 7 7 7 8 8 9 8 6 7 6 3 5 3 4 2 6 5 5 6 7 8 9 8 8 8 6 7 6 11 17 22 24
14 14 13 12 13 11 7 7 7 7 7 7 7 7 9 7 8 7 7 8 7 3 3 3 4 3 6 8 7 6 4 4 7 7 8 7 7 7 7 8 7 7 13
14 14 15 14 13 9 8 7 7 8 7 7 7 8 8 7 6 7 5 6 5 4 4 4 5 7 6 4 4 3 3 3 4 3 3 3 4 5 6 6 5 5 5
17 16 14 15 14 12 9 7 5 4 5 6 5 5 6 6 6 5 5 4 6 4 7 7 4 2 2 4 3 2 1 3 2 2 1 1 1 1 3 4 4 4 5
17 17 16 16 14 13 13 7 5 3 3 4 3 4 4 3 3 4 4 3 4 4 3 4 5 5 4 1 5 3 3 1 4 2 1 1 3 2 3 3 4 3 4
18 16 16 15 15 14 14 11 11 8 7 4 4 2 2 4 4 3 3 4 4 4 4 3 3 4 4 4 2 3 4 3 3 2 1 1 2 5 5 2 3 4 4
16 15 15 14 13 13 14 12 11 11 7 5 3 3 4 3 4 4 4 4 4 3 3 2 1 2 2 3 2 1 2 1 2 2 4 4 5 4 4 3 3 4 5
15 15 14 14 14 14 14 15 14 12 10 7 5 5 4 4 4 4 4 2 2 2 3 3 3 3 3 3 2 1 1 2 1 1 3 4 5 3 4 4 6 5 6
Wind_Direction
149 142 148 135 128 126 120 118 114 117 125 127 129 133 126 130 121 118 111 105 103 105 98 99 99 104 103 103 103 102 102 103 110 107 104 94 88 94 98 101 122 103 108
142 141 138 121 120 121 121 117 114 116 119 126 127 132 128 132 123 119 107 103 96 105 100 96 99 102 107 105 104 104 107 111 113 114 111 108 104 102 104 104 97 106 112
139 140 132 121 118 114 115 118 118 118 120 126 132 131 132 130 124 123 111 111 107 108 97 98 94 105 108 110 102 100 110 106 104 104 94 130 106 120 116 111 108 112 113
141 141 137 129 126 124 125 120 125 128 131 134 142 139 141 137 133 141 136 133 134 132 104 94 104 110 116 119 113 109 111 107 105 106 125 123 124 127 129 126 117 120 125
144 144 135 134 133 132 131 132 130 130 133 139 144 150 154 157 157 169 171 178 182 175 113 114 111 135 132 118 113 119 125 123 111 122 104 83 114 128 134 129 131 128 139
147 147 136 139 142 140 139 142 137 140 139 144 146 156 157 164 172 181 184 190 190 182 188 181 168 149 162 140 129 140 135 145 132 105 133 118 157 145 147 148 133 131 138
149 148 147 150 149 147 148 145 142 148 146 150 156 166 166 164 176 184 190 193 192 171 179 182 206 174 157 152 146 130 154 151 157 183 253 226 199 286 174 155 150 152 146
150 151 148 158 163 160 162 159 162 163 159 165 180 187 193 189 169 190 176 184 187 176 187 164 206 194 189 157 168 204 208 235 201 284 197 205 133 250 193 172 171 166 164
152 150 157 164 161 162 164 169 170 172 172 171 183 187 192 192 186 185 194 192 184 197 202 186 185 197 181 182 196 210 241 247 239 276 232 222 189 225 231 188 182 180 177
157 153 159 166 164 172 168 172 175 180 184 199 196 185 200 186 193 207 173 209 186 197 205 206 201 199 209 207 215 222 227 234 238 247 221 220 210 219 225 207 204 197 181
168 169 167 173 178 177 184 180 182 190 199 201 187 189 189 201 200 193 157 215 219 218 210 225 217 231 227 230 235 240 240 243 253 237 253 184 223 226 226 231 204 204 195
177 182 180 183 186 186 189 192 199 195 200 201 206 202 199 212 215 239 244 236 241 237 234 245 245 246 241 251 245 252 246 226 224 241 250 218 229 230 234 243 224 222 207
183 184 189 190 195 193 198 199 208 203 201 203 212 208 212 222 226 234 235 243 254 246 266 253 239 241 261 257 260 266 263 242 241 237 251 218 225 234 226 239 228 237 220
189 193 190 195 199 204 202 203 209 214 213 219 220 226 226 228 225 242 246 258 257 261 265 265 270 269 265 264 263 265 260 262 259 252 228 238 235 235 232 226 244 241 230
197 197 200 195 201 207 209 209 213 218 220 225 226 229 232 244 243 253 262 270 270 282 270 278 274 274 275 271 265 261 262 258 257 257 240 232 230 228 231 214 219 221 242
205 202 201 202 201 205 213 214 218 224 229 229 236 237 232 246 255 263 269 278 295 290 282 281 276 279 272 268 276 265 269 270 265 260 252 245 240 232 232 234 230 218 218
204 205 202 204 206 208 213 217 218 225 226 233 236 239 236 239 242 264 284 235 241 275 287 271 273 256 261 265 270 266 275 271 254 253 250 241 247 245 246 247 223 233 224
205 205 203 203 203 207 215 217 224 226 233 238 238 237 237 237 219 202 230 231 210 209 246 281 288 283 281 280 269 270 269 258 256 243 243 222 223 230 238 249 224 215 228
205 199 204 207 208 208 214 221 227 234 236 244 248 250 246 243 227 229 241 254 243 223 237 252 260 247 285 282 248 260 260 259 260 260 254 250 225 236 239 251 256 241 230
210 202 202 206 212 208 207 218 234 241 244 248 254 257 254 249 245 233 246 262 262 204 212 249 261 247 255 281 282 278 261 262 266 256 260 250 246 237 237 255 256 265 247
211 207 202 201 207 204 198 208 231 236 239 246 248 252 254 253 250 243 237 250 245 218 193 205 261 271 271 235 250 254 279 256 247 282 272 262 260 260 266 262 264 271 272
212 213 207 209 200 203 207 212 219 221 239 249 262 270 261 270 257 233 232 217 218 219 213 215 248 265 267 204 254 268 276 169 139 62 94 99 284 253 262 251 255 263 263
217 211 210 205 202 201 205 207 203 208 235 242 237 244 245 222 199 192 196 195 199 198 189 214 231 245 281 215 238 296 275 316 326 153 98 81 4 344 327 312 308 293 280
218 214 213 208 203 200 195 203 209 214 224 238 240 99 168 169 142 145 147 149 163 174 189 217 237 262 250 260 226 248 261 309 307 287 138 18 4 358 5 9 3 355 338
212 210 209 205 200 197 194 204 207 220 222 216 172 154 144 145 130 125 123 143 156 176 186 229 223 225 244 292 293 230 204 179 323 251 312 359 343 357 2 358 34 27 12
211 212 205 202 199 192 192 203 208 211 207 212 199 206 176 160 146 147 144 134 148 163 160 130 113 100 102 91 74 51 18 349 15 256 272 320 321 11 46 48 37 23 17